Location: Favalello
(42.2939°N, 9.2706°E)
Time: 17:48:27
(UTC+00:00)

Cosmos 1862 Rocket - Pass Details

Date: 06 December 2019
Orbit: 604 x 634 km, 82.5° (Epoch: 22 January)

Event Time Altitude Azimuth Distance (km) Brightness Sun altitude
Rises 17:14:15 0° 188° (S) 2,848 7.3 -15.0°
Reaches altitude 10° 17:16:27 10° 189° (S) 1,952 6.4 -15.4°
Maximum altitude 17:20:46 84° 276° (W) 620 3.5 -16.1°
Drops below altitude 10° 17:25:10 10° 7° (N) 1,984 5.9 -16.9°
Enters shadow 17:26:34 - 7° (N) 2,553 6.5 -17.2°
